Weather History for Vero Beach, FL

Change the Weather History Date:

Sunday, August 24, 2014

  Actual Average Record
Temperature  
Mean Temperature 82 °F 82 °F  
Max Temperature 92 °F 90 °F 95 °F (1947)
Min Temperature 71 °F 74 °F 68 °F (1957)
Degree Days  
Heating Degree Days 0 0  
Month to date heating degree days 0 0  
Since 1 June heating degree days 0 0  
Since 1 July heating degree days 0 0  
Cooling Degree Days 17 16  
Month to date cooling degree days 406 406  
Year to date cooling degree days 2254 2186  
Since 1 June cooling degree days 1328 1380  
Growing Degree Days 31 (Base 50)    
Moisture  
Dew Point 73 °F    
Average Humidity 75    
Maximum Humidity 93    
Minimum Humidity 56    
Precipitation  
Precipitation 0.00 in 0.24 in 3.09 in (1995)
Month to date precipitation 4.88 5.35  
Year to date precipitation 31.90 33.02  
Sea Level Pressure  
Sea Level Pressure 29.83 in    
Wind  
Wind Speed 6 mph (NNW)    
Max Wind Speed 15 mph    
Max Gust Speed 21 mph    
Visibility 9 miles    
Events      
T = Trace of Precipitation, MM = Missing Value Source: NWS Daily Summary

Daily Weather History Graph

Daily Weather History Graph

Search for Another Location

Airport:

Trip Planner

Search our weather history database for the weather conditions in past years. The results will help you decide how hot, cold, wet, or windy it might be!

Date:

Astronomy

Aug. 24, 2014 Rise Set
Actual Time 6:56 AM EDT 7:50 PM EDT
Civil Twilight 6:32 AM EDT 8:14 PM EDT
Nautical Twilight 6:04 AM EDT 8:43 PM EDT
Astronomical Twilight 5:35 AM EDT 9:12 PM EDT
Moon 6:05 AM EDT (8/24) 7:10 PM EDT (8/24)
Length of Visible Light 13h 42m
Length of Day
12h 54m
Waning Crescent, 1% of the Moon is Illuminated
Aug 24
Waning Crescent
Aug 25
New
Sep 2
First Quarter
Sep 8
Full
Sep 15
Last Quarter

Hourly Weather History & Observations

Time (EDT) Temp. Heat Index Dew Point Humidity Pressure Visibility Wind Dir Wind Speed Gust Speed Precip Events Conditions
12:53 AM 73.0 °F - 71.1 °F 93% 29.89 in 10.0 mi West 4.6 mph - N/A   Clear
1:53 AM 75.0 °F - 72.0 °F 90% 29.88 in 10.0 mi West 4.6 mph - N/A   Clear
2:53 AM 73.9 °F - 66.9 °F 79% 29.86 in 9.0 mi West 4.6 mph - N/A   Clear
3:53 AM 73.9 °F - 71.1 °F 91% 29.85 in 10.0 mi West 4.6 mph - N/A   Clear
4:53 AM 73.9 °F - 72.0 °F 93% 29.84 in 9.0 mi West 3.5 mph - N/A   Clear
5:28 AM 73.0 °F - 73.0 °F 100% 29.83 in 1.8 mi Calm Calm - N/A   Clear
5:38 AM 72.0 °F - 70.0 °F 93% 29.83 in 3.0 mi Calm Calm - N/A   Clear
5:46 AM 73.0 °F - 72.0 °F 96% 29.84 in 1.8 mi Calm Calm - N/A   Clear
5:53 AM 73.0 °F - 70.0 °F 90% 29.84 in 1.2 mi Calm Calm - N/A   Clear
6:24 AM 71.1 °F - 71.1 °F 100% 29.84 in 10.0 mi Calm Calm - N/A   Clear
6:53 AM 72.0 °F - 70.0 °F 93% 29.84 in 7.0 mi West 3.5 mph - N/A   Clear
7:53 AM 75.9 °F - 70.0 °F 82% 29.85 in 9.0 mi Calm Calm - N/A   Clear
8:53 AM 80.1 °F 85.8 °F 77.0 °F 90% 29.87 in 10.0 mi WNW 5.8 mph - N/A   Clear
9:53 AM 86.0 °F 96.0 °F 75.9 °F 72% 29.86 in 10.0 mi NW 8.1 mph - N/A   Clear
10:53 AM 87.1 °F 95.4 °F 73.9 °F 65% 29.86 in 10.0 mi NNW 4.6 mph - N/A   Clear
11:53 AM 89.1 °F 98.0 °F 73.9 °F 61% 29.85 in 10.0 mi NE 3.5 mph - N/A   Scattered Clouds
12:53 PM 91.0 °F 104.2 °F 77.0 °F 63% 29.84 in 10.0 mi ENE 9.2 mph - N/A   Partly Cloudy
1:53 PM 91.0 °F 101.6 °F 75.0 °F 59% 29.82 in 10.0 mi NE 11.5 mph - N/A   Scattered Clouds
2:53 PM 91.0 °F 100.4 °F 73.9 °F 57% 29.80 in 10.0 mi NE 10.4 mph - N/A   Clear
3:53 PM 90.0 °F 99.0 °F 73.9 °F 59% 29.78 in 10.0 mi NNE 13.8 mph - N/A   Clear
4:53 PM 89.1 °F 97.0 °F 73.0 °F 59% 29.78 in 10.0 mi NE 11.5 mph - N/A   Clear
5:53 PM 87.1 °F 95.4 °F 73.9 °F 65% 29.78 in 10.0 mi NNE 9.2 mph - N/A   Clear
6:53 PM 84.0 °F 91.9 °F 75.0 °F 74% 29.76 in 10.0 mi NE 9.2 mph - N/A   Clear
7:53 PM 82.0 °F 90.2 °F 77.0 °F 85% 29.78 in 10.0 mi North 5.8 mph - N/A   Partly Cloudy
8:53 PM 82.0 °F 91.0 °F 78.1 °F 88% 29.80 in 10.0 mi NNW 4.6 mph - N/A   Mostly Cloudy
10:53 PM 81.0 °F 87.9 °F 77.0 °F 88% 29.81 in 10.0 mi NNW 3.5 mph - N/A   Clear
11:53 PM 79.0 °F - 72.0 °F 79% 29.81 in 10.0 mi North 6.9 mph - N/A   Clear